Terminal Aerodrome Forecast
Issued by NWS

Home | Current Version | Previous Version | Text Only | Print | Product List | Glossary On
Versions: 1 2 3 4 5 6 7 8 9 10 11 12 13 14 15 16 17 18
000
FTUS43 KGRB 240914 AAA
TAFCWA
TAF AMD
KCWA 240914Z 2409/2506 16007KT P6SM SCT009 OVC015 WS020/21035KT
      TEMPO 2409/2413 5SM -SHRA BKN009
     FM241500 26010G19KT P6SM SCT025 BKN050
     FM242000 27010G18KT P6SM SCT050
     FM250100 28005KT P6SM FEW050
      AMD LTD TO CLD VIS AND WIND TIL 241100=

USA.gov is the U.S. government's official web portal to all federal, state and local government web resources and services.